Погода в Юште

Россия / Рязанская область     54°23′01″N   40°50′08″E
темп.,
°C
ветер,
м/с
пор.,
м/с
влажн.,
%
обл.,
%
осадки,
мм/ч
давл.,
гПа
погр.,
м
21 октября, чт
чт2100:00+2ю81784100 1.3 1013719
03:00+3ююз91890100 4.9 1009823
06:00+6юз91790100 0.4 1006686
09:00+8юз81786100 0.6 1004646
12:00+11юз91775100 0.1 1002865
15:00+13зюз81670100 0.1 1002851
18:00+11юз71677100 0.1 1003632
21:00+11юз71575100 0.4 1002519
22 октября, пт
пт2200:00+11юз81772100 0.0 1000632
03:00+11юз81774100 0.0 999663
06:00+11юз91774100 0.0 998777
09:00+11юз8157287 0.0 999752
12:00+14зюз9146465 0.0 10001301
15:00+14зюз916615 0.1 10011668
18:00+11зюз814604 0.1 1004892
21:00+9зюз714645 0.1 1006671
23 октября, сб
сб2300:00+8юз613710 0.0 1007500
03:00+7юз613725 0.0 1006506
06:00+6юз61471100 0.0 1006502
09:00+7юз71365100 0.0 1007739
12:00+10зюз811485 0.0 10071527
15:00+10зюз7115156 0.0 10071812
18:00+7зюз7127687 0.3 1008674
21:00+5зюз6118429 0.3 1009523
24 октября, вс
вс2400:00+4зюз612825 0.0 1010511
03:00+3зюз511825 0.0 1011455
06:00+3зюз51086100 0.0 1011571
09:00+4юз61077100 0.0 1011689
12:00+6зюз786797 0.1 10111186
15:00+6з5769100 0.6 10121095
18:00+3з4692100 0.3 1013649
21:00+3сз4789100 1.1 1015719
25 октября, пн
пн2500:00+2сз5996100 0.3 1017550
03:00+1ссз7118483 0.5 1020731
06:000ссз6108274 0.0 1023650
09:00+1с697656 0.0 1026950
12:00+3с68585 0.0 10291016
15:00+4с57497 0.0 10301060
18:000ссз346961 0.0 103255
21:00−1ссз22735 0.0 103437